QPF
0.02 0.02 0.03 0.04 0.03 0.02 0.03 0.04 0.03 0.04 0.04 0.03 0.02 0.02 0.01 0.01 0.02 0.02 0.03 0.04 0.04 0.04 0.05 0.06 0.07 0.08 0.09 0.11 0.10 0.11 0.11 0.09 0.08 0.07 0.07 0.06 0.07 0.08 0.06 0.06 0.06 0.06 0.07
0.02 0.02 0.03 0.03 0.03 0.03 0.03 0.03 0.03 0.04 0.05 0.04 0.03 0.03 0.02 0.01 0.02 0.02 0.03 0.05 0.05 0.05 0.05 0.06 0.08 0.08 0.08 0.10 0.10 0.10 0.09 0.09 0.09 0.08 0.08 0.08 0.08 0.07 0.07 0.07 0.06 0.06 0.07
0.02 0.02 0.03 0.03 0.03 0.04 0.03 0.02 0.02 0.02 0.03 0.03 0.03 0.02 0.02 0.02 0.02 0.02 0.02 0.03 0.04 0.05 0.06 0.06 0.06 0.06 0.08 0.08 0.07 0.09 0.09 0.07 0.07 0.08 0.08 0.08 0.06 0.05 0.06 0.06 0.06 0.05 0.06
0.02 0.03 0.05 0.04 0.03 0.03 0.03 0.02 0.01 0.01 0.01 0.02 0.04 0.03 0.02 0.02 0.02 0.03 0.03 0.03 0.04 0.03 0.04 0.06 0.05 0.04 0.06 0.06 0.06 0.09 0.08 0.07 0.06 0.06 0.08 0.06 0.05 0.05 0.05 0.04 0.06 0.06 0.07
0.03 0.03 0.05 0.03 0.03 0.03 0.03 0.02 0.01 0.01 0.01 0.02 0.03 0.03 0.03 0.03 0.02 0.03 0.03 0.02 0.03 0.02 0.02 0.04 0.05 0.05 0.06 0.06 0.07 0.08 0.08 0.09 0.07 0.07 0.07 0.07 0.06 0.05 0.04 0.05 0.06 0.06 0.08
0.04 0.04 0.04 0.04 0.04 0.03 0.02 0.02 0.01 0.02 0.03 0.03 0.02 0.03 0.04 0.03 0.03 0.03 0.02 0.02 0.02 0.02 0.03 0.04 0.05 0.06 0.07 0.07 0.06 0.08 0.10 0.12 0.08 0.10 0.10 0.09 0.07 0.06 0.05 0.05 0.05 0.06 0.08
0.06 0.05 0.04 0.05 0.05 0.04 0.03 0.03 0.03 0.04 0.04 0.04 0.03 0.04 0.04 0.03 0.03 0.02 0.02 0.02 0.02 0.02 0.02 0.04 0.04 0.05 0.08 0.08 0.08 0.10 0.10 0.08 0.07 0.12 0.13 0.12 0.09 0.07 0.06 0.05 0.05 0.04 0.06
0.07 0.06 0.05 0.06 0.06 0.05 0.04 0.03 0.03 0.03 0.04 0.05 0.06 0.06 0.04 0.03 0.02 0.01 0.02 0.02 0.03 0.03 0.02 0.03 0.04 0.04 0.05 0.06 0.08 0.08 0.07 0.08 0.08 0.12 0.15 0.16 0.11 0.08 0.06 0.05 0.05 0.05 0.06
0.06 0.06 0.05 0.06 0.06 0.05 0.05 0.04 0.04 0.04 0.04 0.05 0.06 0.05 0.04 0.04 0.03 0.02 0.01 0.01 0.02 0.02 0.02 0.02 0.02 0.02 0.03 0.04 0.05 0.05 0.06 0.07 0.07 0.09 0.13 0.19 0.14 0.07 0.05 0.04 0.05 0.06 0.07
0.05 0.05 0.05 0.06 0.06 0.04 0.04 0.04 0.03 0.03 0.04 0.03 0.03 0.02 0.02 0.03 0.04 0.02 0.01 0.01 0.01 0.01 0.02 0.02 0.02 0.02 0.02 0.01 0.02 0.02 0.03 0.04 0.04 0.06 0.10 0.15 0.13 0.06 0.05 0.05 0.05 0.06 0.07
0.05 0.05 0.06 0.07 0.07 0.06 0.06 0.06 0.04 0.03 0.03 0.03 0.02 0.03 0.02 0.03 0.03 0.03 0.02 0.01 0.01 0.01 0.02 0.02 0.02 0.02 0.02 0.02 0.01 0.01 0.02 0.03 0.02 0.03 0.06 0.09 0.09 0.06 0.04 0.05 0.06 0.05 0.05
0.05 0.06 0.08 0.10 0.09 0.07 0.05 0.06 0.05 0.03 0.02 0.02 0.02 0.02 0.03 0.05 0.03 0.02 0.02 0.02 0.01 0.01 0.01 0.01 0.01 0.01 0.01 0.03 0.03 0.03 0.02 0.02 0.02 0.02 0.05 0.08 0.07 0.05 0.05 0.05 0.05 0.04 0.04
0.06 0.07 0.10 0.11 0.09 0.07 0.06 0.05 0.04 0.04 0.03 0.03 0.03 0.02 0.04 0.05 0.03 0.02 0.03 0.02 0.01 0.01 0.01 0.01 0.01 0.01 0.02 0.02 0.03 0.04 0.04 0.03 0.03 0.03 0.04 0.08 0.07 0.05 0.04 0.04 0.04 0.04 0.04
0.07 0.09 0.09 0.11 0.12 0.11 0.08 0.04 0.04 0.04 0.05 0.05 0.04 0.03 0.05 0.05 0.04 0.04 0.03 0.03 0.02 0.01 0.01 0.01 0.01 0.01 0.02 0.02 0.03 0.04 0.06 0.06 0.04 0.03 0.03 0.06 0.07 0.05 0.04 0.03 0.03 0.02 0.02
0.07 0.07 0.08 0.09 0.08 0.08 0.07 0.05 0.04 0.04 0.05 0.05 0.04 0.04 0.05 0.05 0.05 0.04 0.04 0.03 0.03 0.02 0.02 0.02 0.03 0.03 0.03 0.03 0.03 0.03 0.04 0.06 0.05 0.04 0.04 0.04 0.05 0.06 0.05 0.04 0.04 0.03 0.02
0.05 0.07 0.06 0.06 0.06 0.06 0.06 0.05 0.05 0.05 0.05 0.05 0.05 0.06 0.05 0.03 0.04 0.04 0.03 0.03 0.03 0.03 0.03 0.03 0.03 0.04 0.05 0.04 0.04 0.04 0.04 0.05 0.07 0.07 0.06 0.07 0.07 0.07 0.06 0.06 0.05 0.04 0.03
0.06 0.06 0.06 0.06 0.06 0.07 0.08 0.07 0.06 0.06 0.06 0.05 0.07 0.07 0.06 0.04 0.03 0.03 0.03 0.03 0.03 0.04 0.03 0.03 0.04 0.04 0.05 0.05 0.04 0.03 0.03 0.04 0.05 0.05 0.04 0.05 0.06 0.07 0.08 0.06 0.05 0.03 0.03
0.08 0.06 0.06 0.06 0.06 0.06 0.08 0.08 0.07 0.07 0.07 0.07 0.06 0.07 0.06 0.06 0.05 0.05 0.04 0.04 0.04 0.04 0.04 0.03 0.03 0.02 0.02 0.03 0.03 0.03 0.02 0.03 0.03 0.05 0.05 0.05 0.05 0.05 0.07 0.08 0.07 0.05 0.04
0.10 0.06 0.05 0.05 0.05 0.05 0.08 0.08 0.08 0.08 0.08 0.08 0.08 0.08 0.08 0.08 0.09 0.09 0.08 0.05 0.04 0.05 0.04 0.04 0.03 0.02 0.01 0.02 0.02 0.02 0.02 0.03 0.03 0.03 0.03 0.04 0.05 0.05 0.05 0.06 0.06 0.07 0.06
0.06 0.04 0.03 0.04 0.06 0.07 0.08 0.07 0.07 0.07 0.08 0.09 0.11 0.11 0.10 0.08 0.07 0.07 0.07 0.05 0.05 0.05 0.05 0.05 0.03 0.02 0.01 0.01 0.01 0.01 0.01 0.01 0.02 0.01 0.01 0.02 0.04 0.05 0.04 0.03 0.04 0.04 0.04
0.06 0.06 0.04 0.04 0.05 0.05 0.04 0.03 0.03 0.03 0.04 0.06 0.06 0.05 0.05 0.05 0.06 0.07 0.06 0.05 0.05 0.04 0.03 0.03 0.03 0.01 0.01 0.01 0.01 0.01 0.01 0.01 0.02 0.02 0.03 0.02 0.03 0.04 0.03 0.03 0.02 0.02 0.02
0.08 0.09 0.08 0.06 0.05 0.03 0.03 0.02 0.02 0.02 0.02 0.02 0.02 0.02 0.03 0.03 0.03 0.04 0.05 0.04 0.04 0.03 0.02 0.02 0.02 0.02 0.01 0.02 0.02 0.02 0.01 0.01 0.02 0.02 0.02 0.02 0.02 0.04 0.04 0.03 0.02 0.01 0.01
0.04 0.04 0.05 0.05 0.04 0.04 0.03 0.02 0.02 0.02 0.01 0.01 0.01 0.02 0.02 0.02 0.02 0.02 0.03 0.04 0.05 0.05 0.04 0.03 0.03 0.02 0.03 0.03 0.03 0.03 0.03 0.02 0.02 0.02 0.02 0.01 0.01 0.02 0.04 0.03 0.02 0.02 0.01
0.03 0.02 0.02 0.02 0.02 0.03 0.03 0.03 0.03 0.03 0.02 0.02 0.02 0.02 0.01 0.01 0.02 0.02 0.03 0.04 0.03 0.04 0.04 0.04 0.03 0.05 0.06 0.06 0.06 0.05 0.05 0.04 0.04 0.04 0.03 0.02 0.02 0.01 0.02 0.04 0.03 0.02 0.02
0.03 0.02 0.02 0.02 0.03 0.04 0.04 0.03 0.03 0.02 0.01 0.01 0.02 0.02 0.02 0.02 0.02 0.03 0.04 0.05 0.04 0.04 0.04 0.05 0.05 0.06 0.07 0.07 0.06 0.05 0.05 0.05 0.05 0.05 0.04 0.04 0.04 0.03 0.03 0.04 0.05 0.04 0.03
0.03 0.02 0.02 0.04 0.03 0.03 0.04 0.03 0.03 0.02 0.02 0.01 0.01 0.02 0.03 0.03 0.03 0.05 0.05 0.06 0.05 0.05 0.05 0.05 0.05 0.06 0.06 0.06 0.05 0.04 0.05 0.05 0.05 0.04 0.03 0.04 0.05 0.05 0.04 0.04 0.04 0.04 0.04
MSLP
1013.90 1013.81 1013.66 1013.48 1013.30 1013.15 1013.08 1013.08 1013.16 1013.29 1013.46 1013.62 1013.76 1013.87 1013.94 1013.98 1014.03 1014.09 1014.19 1014.33 1014.52 1014.74 1014.98 1015.22 1015.44 1015.64 1015.80 1015.93 1016.03 1016.10 1016.17 1016.22 1016.27 1016.32 1016.38 1016.43 1016.48 1016.51 1016.54 1016.54 1016.53 1016.49 1016.44
1013.84 1013.75 1013.60 1013.43 1013.25 1013.11 1013.04 1013.05 1013.14 1013.30 1013.48 1013.67 1013.84 1013.96 1014.04 1014.07 1014.09 1014.11 1014.17 1014.26 1014.41 1014.60 1014.82 1015.06 1015.29 1015.49 1015.66 1015.78 1015.86 1015.91 1015.93 1015.93 1015.93 1015.94 1015.95 1015.97 1016.00 1016.03 1016.05 1016.05 1016.04 1016.00 1015.95
1013.74 1013.67 1013.56 1013.42 1013.28 1013.18 1013.13 1013.16 1013.27 1013.44 1013.65 1013.86 1014.04 1014.17 1014.25 1014.27 1014.26 1014.24 1014.23 1014.26 1014.35 1014.48 1014.67 1014.88 1015.10 1015.31 1015.48 1015.60 1015.68 1015.70 1015.69 1015.65 1015.61 1015.57 1015.55 1015.54 1015.55 1015.57 1015.59 1015.60 1015.60 1015.58 1015.54
1013.60 1013.57 1013.51 1013.43 1013.35 1013.30 1013.30 1013.36 1013.49 1013.67 1013.89 1014.11 1014.31 1014.45 1014.53 1014.55 1014.51 1014.44 1014.37 1014.34 1014.35 1014.42 1014.54 1014.72 1014.91 1015.11 1015.28 1015.41 1015.49 1015.50 1015.48 1015.41 1015.34 1015.26 1015.20 1015.16 1015.15 1015.16 1015.18 1015.21 1015.23 1015.23 1015.22
1013.44 1013.45 1013.45 1013.44 1013.43 1013.44 1013.49 1013.58 1013.73 1013.92 1014.14 1014.37 1014.58 1014.74 1014.83 1014.85 1014.80 1014.70 1014.59 1014.49 1014.42 1014.42 1014.48 1014.59 1014.76 1014.93 1015.10 1015.23 1015.31 1015.34 1015.31 1015.23 1015.13 1015.02 1014.93 1014.86 1014.82 1014.81 1014.83 1014.87 1014.91 1014.94 1014.95
1013.27 1013.31 1013.36 1013.42 1013.48 1013.55 1013.64 1013.76 1013.92 1014.12 1014.34 1014.58 1014.80 1014.98 1015.09 1015.13 1015.09 1014.99 1014.85 1014.70 1014.58 1014.50 1014.49 1014.54 1014.65 1014.80 1014.95 1015.09 1015.18 1015.22 1015.19 1015.12 1015.00 1014.87 1014.75 1014.65 1014.58 1014.55 1014.55 1014.59 1014.63 1014.68 1014.72
1013.10 1013.16 1013.26 1013.37 1013.48 1013.60 1013.73 1013.87 1014.03 1014.23 1014.45 1014.69 1014.92 1015.13 1015.28 1015.37 1015.37 1015.29 1015.14 1014.97 1014.80 1014.66 1014.57 1014.56 1014.61 1014.71 1014.84 1014.97 1015.08 1015.13 1015.12 1015.06 1014.94 1014.80 1014.65 1014.52 1014.42 1014.36 1014.34 1014.35 1014.39 1014.44 1014.49
1012.97 1013.03 1013.15 1013.29 1013.44 1013.59 1013.74 1013.89 1014.05 1014.23 1014.45 1014.69 1014.94 1015.18 1015.39 1015.53 1015.58 1015.54 1015.42 1015.25 1015.05 1014.85 1014.70 1014.62 1014.61 1014.66 1014.76 1014.87 1014.98 1015.05 1015.07 1015.02 1014.92 1014.78 1014.62 1014.46 1014.33 1014.23 1014.17 1014.15 1014.17 1014.21 1014.25
1012.87 1012.93 1013.04 1013.20 1013.37 1013.54 1013.69 1013.83 1013.98 1014.15 1014.35 1014.59 1014.86 1015.14 1015.39 1015.59 1015.71 1015.73 1015.65 1015.49 1015.27 1015.04 1014.83 1014.68 1014.60 1014.60 1014.65 1014.75 1014.86 1014.94 1014.98 1014.97 1014.89 1014.76 1014.61 1014.44 1014.28 1014.15 1014.06 1014.00 1013.98 1013.99 1014.02
1012.80 1012.84 1012.95 1013.11 1013.28 1013.44 1013.59 1013.72 1013.85 1014.00 1014.19 1014.42 1014.70 1015.00 1015.30 1015.55 1015.73 1015.81 1015.77 1015.63 1015.42 1015.16 1014.91 1014.70 1014.55 1014.49 1014.50 1014.56 1014.66 1014.75 1014.82 1014.84 1014.80 1014.70 1014.57 1014.41 1014.25 1014.10 1013.98 1013.89 1013.84 1013.82 1013.82
1012.71 1012.74 1012.85 1013.00 1013.16 1013.32 1013.46 1013.58 1013.69 1013.81 1013.97 1014.19 1014.47 1014.78 1015.11 1015.40 1015.63 1015.76 1015.77 1015.66 1015.45 1015.18 1014.89 1014.63 1014.43 1014.31 1014.26 1014.29 1014.37 1014.47 1014.55 1014.60 1014.60 1014.55 1014.46 1014.33 1014.18 1014.04 1013.91 1013.81 1013.74 1013.69 1013.67
1012.55 1012.59 1012.70 1012.85 1013.01 1013.17 1013.29 1013.40 1013.49 1013.59 1013.72 1013.92 1014.18 1014.49 1014.82 1015.14 1015.40 1015.57 1015.61 1015.53 1015.35 1015.08 1014.78 1014.48 1014.23 1014.05 1013.96 1013.94 1013.99 1014.07 1014.16 1014.24 1014.28 1014.28 1014.23 1014.15 1014.05 1013.93 1013.82 1013.73 1013.65 1013.60 1013.56
1012.29 1012.36 1012.48 1012.63 1012.80 1012.95 1013.08 1013.17 1013.25 1013.33 1013.44 1013.61 1013.84 1014.13 1014.45 1014.77 1015.05 1015.24 1015.32 1015.28 1015.12 1014.87 1014.57 1014.26 1013.97 1013.75 1013.61 1013.54 1013.54 1013.60 1013.68 1013.76 1013.82 1013.86 1013.86 1013.84 1013.79 1013.72 1013.65 1013.58 1013.53 1013.48 1013.45
1011.89 1012.00 1012.15 1012.32 1012.50 1012.67 1012.80 1012.89 1012.96 1013.03 1013.12 1013.25 1013.45 1013.71 1014.01 1014.32 1014.60 1014.81 1014.92 1014.91 1014.79 1014.58 1014.30 1013.99 1013.69 1013.44 1013.24 1013.12 1013.07 1013.07 1013.11 1013.17 1013.24 1013.29 1013.34 1013.36 1013.36 1013.35 1013.34 1013.32 1013.30 1013.28 1013.27
1011.37 1011.52 1011.71 1011.91 1012.11 1012.30 1012.44 1012.55 1012.62 1012.68 1012.75 1012.86 1013.03 1013.25 1013.52 1013.80 1014.07 1014.29 1014.43 1014.47 1014.40 1014.23 1013.99 1013.71 1013.41 1013.13 1012.90 1012.72 1012.59 1012.52 1012.50 1012.51 1012.55 1012.60 1012.65 1012.70 1012.74 1012.78 1012.82 1012.85 1012.87 1012.90 1012.92
1010.73 1010.93 1011.16 1011.40 1011.64 1011.85 1012.02 1012.15 1012.24 1012.30 1012.36 1012.45 1012.58 1012.77 1013.00 1013.26 1013.52 1013.74 1013.90 1013.98 1013.96 1013.86 1013.67 1013.42 1013.14 1012.85 1012.58 1012.34 1012.14 1011.98 1011.87 1011.81 1011.78 1011.78 1011.81 1011.86 1011.92 1011.99 1012.06 1012.13 1012.20 1012.26 1012.32
1010.03 1010.29 1010.56 1010.84 1011.11 1011.36 1011.56 1011.72 1011.82 1011.89 1011.96 1012.03 1012.14 1012.29 1012.48 1012.71 1012.95 1013.17 1013.35 1013.46 1013.50 1013.44 1013.31 1013.11 1012.85 1012.56 1012.26 1011.97 1011.69 1011.45 1011.24 1011.07 1010.96 1010.89 1010.86 1010.87 1010.91 1010.97 1011.05 1011.14 1011.23 1011.32 1011.41
1009.34 1009.63 1009.94 1010.25 1010.56 1010.85 1011.08 1011.27 1011.40 1011.49 1011.55 1011.62 1011.70 1011.82 1011.98 1012.17 1012.39 1012.59 1012.78 1012.91 1012.98 1012.97 1012.89 1012.72 1012.50 1012.21 1011.90 1011.56 1011.22 1010.89 1010.59 1010.32 1010.10 1009.94 1009.83 1009.77 1009.75 1009.78 1009.83 1009.90 1009.99 1010.09 1010.20
1008.69 1009.00 1009.34 1009.69 1010.03 1010.34 1010.61 1010.82 1010.98 1011.08 1011.15 1011.21 1011.28 1011.37 1011.49 1011.65 1011.82 1012.00 1012.17 1012.31 1012.39 1012.41 1012.35 1012.22 1012.02 1011.75 1011.42 1011.06 1010.68 1010.28 1009.90 1009.54 1009.23 1008.97 1008.76 1008.62 1008.52 1008.47 1008.47 1008.50 1008.55 1008.64 1008.75
1008.11 1008.44 1008.79 1009.16 1009.52 1009.86 1010.15 1010.38 1010.55 1010.67 1010.75 1010.80 1010.85 1010.92 1011.00 1011.11 1011.25 1011.38 1011.52 1011.63 1011.70 1011.71 1011.67 1011.56 1011.37 1011.12 1010.80 1010.43 1010.02 1009.59 1009.16 1008.73 1008.34 1007.99 1007.69 1007.45 1007.26 1007.12 1007.04 1006.99 1007.00 1007.05 1007.14
1007.63 1007.95 1008.31 1008.68 1009.05 1009.39 1009.68 1009.93 1010.10 1010.23 1010.31 1010.36 1010.40 1010.44 1010.49 1010.55 1010.63 1010.71 1010.79 1010.86 1010.89 1010.89 1010.83 1010.72 1010.54 1010.30 1009.99 1009.63 1009.23 1008.79 1008.33 1007.87 1007.42 1007.01 1006.63 1006.29 1006.01 1005.78 1005.60 1005.47 1005.40 1005.40 1005.47
1007.23 1007.54 1007.87 1008.23 1008.58 1008.91 1009.20 1009.43 1009.61 1009.73 1009.80 1009.85 1009.88 1009.89 1009.91 1009.94 1009.96 1009.99 1010.01 1010.01 1009.99 1009.94 1009.86 1009.73 1009.55 1009.31 1009.02 1008.68 1008.29 1007.86 1007.41 1006.93 1006.45 1005.99 1005.54 1005.14 1004.77 1004.44 1004.17 1003.97 1003.83 1003.78 1003.82
1006.92 1007.19 1007.49 1007.81 1008.13 1008.42 1008.67 1008.88 1009.03 1009.14 1009.21 1009.25 1009.27 1009.28 1009.27 1009.26 1009.24 1009.22 1009.17 1009.11 1009.03 1008.93 1008.80 1008.64 1008.45 1008.21 1007.93 1007.61 1007.24 1006.82 1006.37 1005.89 1005.39 1004.89 1004.40 1003.93 1003.49 1003.09 1002.75 1002.48 1002.29 1002.20 1002.23
1006.70 1006.92 1007.16 1007.42 1007.68 1007.91 1008.11 1008.27 1008.39 1008.47 1008.53 1008.56 1008.58 1008.58 1008.57 1008.54 1008.49 1008.42 1008.33 1008.21 1008.07 1007.91 1007.74 1007.54 1007.32 1007.06 1006.78 1006.46 1006.09 1005.67 1005.22 1004.72 1004.20 1003.67 1003.13 1002.61 1002.12 1001.67 1001.28 1000.97 1000.76 1000.66 1000.70
1006.57 1006.72 1006.90 1007.08 1007.25 1007.41 1007.53 1007.63 1007.70 1007.75 1007.79 1007.82 1007.84 1007.84 1007.83 1007.80 1007.73 1007.64 1007.51 1007.35 1007.16 1006.95 1006.72 1006.48 1006.22 1005.93 1005.62 1005.27 1004.87 1004.43 1003.94 1003.41 1002.85 1002.26 1001.68 1001.11 1000.58 1000.10 999.69 999.38 999.19 999.13 999.22
1006.52 1006.61 1006.71 1006.80 1006.88 1006.94 1006.99 1007.01 1007.03 1007.04 1007.06 1007.08 1007.10 1007.11 1007.11 1007.08 1007.01 1006.90 1006.75 1006.56 1006.34 1006.08 1005.81 1005.52 1005.20 1004.87 1004.50 1004.08 1003.63 1003.12 1002.56 1001.95 1001.32 1000.67 1000.02 999.41 998.84 998.36 997.96 997.69 997.56 997.58 997.77
Thickness
5769 5768 5767 5766 5765 5764 5763 5762 5761 5759 5758 5756 5755 5754 5753 5752 5750 5749 5748 5747 5746 5745 5745 5744 5743 5742 5740 5739 5737 5735 5734 5733 5732 5730 5728 5726 5724 5722 5720 5719 5717 5716 5715
5768 5767 5766 5765 5764 5763 5763 5762 5760 5758 5757 5755 5754 5754 5753 5752 5750 5749 5748 5747 5747 5746 5745 5745 5744 5742 5741 5739 5737 5736 5734 5733 5732 5730 5728 5726 5725 5723 5721 5719 5718 5717 5715
5768 5767 5765 5764 5763 5763 5762 5760 5759 5757 5756 5755 5754 5753 5752 5751 5750 5749 5748 5747 5746 5746 5745 5744 5743 5742 5741 5739 5737 5736 5735 5733 5732 5730 5729 5727 5725 5723 5722 5720 5719 5717 5716
5769 5767 5765 5764 5763 5762 5761 5759 5758 5756 5754 5753 5752 5752 5751 5750 5750 5749 5748 5747 5746 5745 5745 5744 5743 5742 5741 5739 5738 5736 5735 5733 5732 5730 5728 5727 5725 5724 5722 5721 5719 5717 5716
5768 5767 5765 5764 5763 5761 5760 5759 5757 5754 5752 5751 5751 5750 5750 5750 5749 5748 5748 5747 5746 5745 5744 5743 5743 5742 5741 5739 5737 5736 5735 5733 5731 5730 5728 5727 5725 5723 5722 5720 5719 5717 5716
5768 5767 5765 5763 5762 5760 5758 5757 5755 5753 5751 5750 5750 5749 5748 5748 5748 5747 5746 5746 5745 5744 5743 5743 5743 5742 5740 5739 5737 5736 5734 5733 5731 5729 5728 5726 5725 5723 5721 5720 5718 5717 5715
5768 5766 5765 5763 5761 5759 5757 5756 5754 5751 5750 5749 5746 5744 5745 5747 5747 5746 5745 5745 5744 5743 5743 5742 5741 5740 5739 5738 5737 5735 5734 5732 5731 5729 5728 5726 5724 5722 5721 5720 5718 5716 5714
5768 5767 5764 5763 5760 5758 5756 5754 5752 5749 5748 5747 5744 5739 5737 5739 5742 5745 5744 5743 5743 5742 5741 5741 5739 5738 5738 5737 5735 5734 5732 5731 5730 5729 5727 5725 5723 5721 5720 5718 5717 5715 5714
5768 5767 5765 5762 5760 5758 5755 5753 5752 5749 5745 5745 5744 5740 5733 5730 5733 5738 5740 5741 5740 5739 5739 5739 5738 5737 5736 5734 5733 5732 5731 5730 5728 5727 5726 5724 5722 5720 5718 5717 5716 5714 5712
5768 5766 5764 5762 5760 5758 5755 5753 5752 5749 5746 5743 5742 5741 5739 5736 5731 5730 5735 5737 5737 5736 5736 5736 5736 5735 5734 5732 5731 5730 5729 5728 5726 5725 5724 5723 5720 5718 5716 5715 5713 5712 5710
5765 5764 5763 5761 5758 5757 5755 5753 5750 5748 5747 5744 5741 5739 5737 5734 5732 5728 5727 5730 5732 5734 5734 5733 5733 5732 5731 5730 5729 5728 5727 5726 5724 5723 5722 5721 5718 5716 5714 5713 5711 5710 5709
5762 5762 5760 5759 5757 5756 5754 5752 5750 5748 5746 5744 5742 5740 5737 5733 5730 5728 5725 5725 5726 5729 5731 5731 5730 5729 5728 5728 5727 5726 5725 5724 5722 5721 5719 5718 5716 5714 5712 5710 5709 5707 5706
5759 5759 5758 5757 5756 5754 5753 5752 5750 5747 5745 5743 5740 5739 5737 5735 5733 5730 5726 5723 5722 5725 5726 5727 5726 5725 5725 5724 5724 5723 5722 5721 5720 5719 5717 5716 5714 5712 5710 5708 5706 5705 5704
5758 5758 5757 5756 5755 5753 5752 5750 5748 5747 5745 5743 5741 5738 5736 5734 5733 5730 5727 5723 5720 5720 5721 5721 5723 5722 5721 5721 5720 5720 5719 5718 5717 5716 5714 5713 5711 5710 5707 5705 5703 5702 5700
5758 5757 5755 5754 5752 5751 5750 5749 5747 5745 5743 5742 5740 5737 5735 5734 5732 5730 5728 5725 5720 5716 5716 5718 5718 5719 5717 5717 5716 5715 5715 5714 5713 5712 5710 5709 5708 5706 5704 5702 5700 5699 5697
5756 5754 5753 5751 5749 5748 5747 5746 5744 5743 5741 5739 5738 5735 5733 5732 5729 5728 5726 5724 5722 5718 5714 5714 5714 5714 5714 5713 5712 5710 5710 5710 5708 5707 5706 5704 5703 5702 5700 5698 5696 5695 5694
5753 5752 5751 5748 5746 5745 5744 5742 5741 5739 5737 5736 5735 5733 5731 5730 5727 5726 5724 5721 5719 5716 5712 5711 5710 5710 5709 5708 5707 5706 5706 5705 5704 5703 5702 5700 5698 5697 5695 5693 5692 5690 5689
5751 5750 5748 5745 5743 5742 5741 5739 5737 5736 5734 5732 5730 5729 5728 5728 5725 5723 5720 5718 5716 5714 5710 5707 5706 5705 5704 5704 5703 5702 5702 5701 5699 5698 5697 5695 5694 5692 5690 5688 5687 5685 5684
5748 5746 5744 5741 5740 5738 5737 5735 5733 5731 5730 5728 5727 5725 5724 5723 5721 5719 5717 5715 5713 5712 5708 5704 5702 5700 5699 5698 5697 5697 5696 5695 5694 5693 5692 5690 5688 5687 5685 5683 5681 5680 5679
5744 5742 5740 5738 5736 5735 5733 5732 5730 5728 5726 5725 5724 5722 5721 5720 5717 5715 5714 5712 5710 5706 5704 5701 5698 5695 5693 5692 5691 5690 5690 5689 5688 5688 5686 5685 5683 5681 5679 5677 5676 5675 5673
5741 5738 5736 5734 5733 5731 5730 5728 5727 5725 5723 5721 5720 5719 5718 5717 5715 5713 5712 5709 5706 5702 5699 5697 5694 5691 5689 5687 5687 5686 5684 5683 5682 5681 5679 5678 5677 5676 5674 5672 5670 5669 5667
5736 5734 5732 5730 5729 5728 5726 5725 5723 5721 5719 5716 5715 5714 5713 5712 5711 5710 5708 5706 5703 5700 5697 5694 5691 5688 5686 5685 5683 5681 5678 5676 5676 5677 5673 5672 5671 5669 5668 5666 5665 5663 5662
5731 5729 5728 5726 5724 5723 5722 5720 5719 5716 5714 5712 5710 5709 5709 5709 5706 5704 5703 5701 5699 5698 5695 5692 5689 5686 5684 5683 5679 5676 5674 5672 5672 5671 5668 5666 5664 5663 5662 5660 5659 5658 5656
5727 5725 5723 5722 5720 5719 5718 5716 5713 5711 5708 5707 5706 5704 5702 5701 5701 5699 5697 5695 5693 5692 5690 5688 5686 5685 5683 5681 5677 5674 5671 5667 5665 5664 5662 5660 5659 5657 5656 5655 5653 5652 5650
5723 5721 5719 5717 5715 5715 5714 5711 5708 5705 5703 5701 5700 5699 5697 5696 5695 5693 5690 5688 5686 5685 5684 5682 5681 5679 5678 5676 5672 5668 5664 5662 5660 5659 5657 5655 5653 5651 5650 5649 5647 5645 5643
5719 5716 5714 5713 5711 5709 5708 5706 5703 5700 5697 5696 5694 5693 5692 5690 5689 5687 5684 5682 5680 5679 5678 5675 5674 5672 5671 5669 5667 5664 5662 5658 5655 5653 5652 5648 5647 5644 5643 5642 5640 5638 5636